Showing default

CUBEL, 47448

Orbit data source: Space-Track

CUBEL, 47448 is a payload satellite owned by DLR (DE) in SSO that was launched on Sun, 24 Jan 2021 UTC via an FALCON 9 launch vehicle from the Air Force Eastern Test Range (AFETR). Payload-class satellites include a variety of spacecraft equipped with specific instruments for various scientific and technological missions. These include communications satellites like Starlink; space stations such as the ISS; scientific satellites like the Hubble; Earth observation satellites from companies like Planet Labs, Umbra, and HawkEye 360; GPS; miniature CubeSats for education and research; and military/defense satellites.

Loading next visibility...
Identifier
47448, 2021-006AM
Orbit
SSO
Last TLE update
10 hours ago
Origin
Manufacturer
DLR2/GOMSP
Mission
Operational Civil Technology
Bus & Motor
CUBESAT 3U, Unknown motor
Mass
4 kg wet, 4 kg dry
Launch date (UTC)
2021-01-24 (4 years ago)
Launch vehicle
FALCON 9
Launch site
Air Force Eastern Test Range (AFETR)
Object type
Payload
Rocket body
Debris
Shape & HBR
Box, Unknown HBR
Radar Cross Section
0.035 m², Small (<0.1 m²)

Expand to show TLE details & history

TLE from 10 hours ago
0 CUBEL
1 47448U 21006AM  25199.55596245  .00011305  00000-0  36549-3 0  9993
2 47448  97.2857 249.1543 0006230 297.9249  62.1361 15.32223351248503
Epoch: 2025-07-18T13:20Z
TLE epoch observation values (Epoch: 2025-07-18T13:20:35.155Z)
Latitude
-0.00013°
Longitude
112.40211°
Altitude
470.299 km
Speed
7.632 km/s
True Right ascension
16h 36m 37s
True Declination
0° 00' 00"
Sunlit
Object was in full shadow at epoch
Visualization orbit readout
Latitude
55.14477°
Longitude
102.27873°
Altitude
480.429 km
Speed
7.63 km/s
Apparent Right ascension
20h 32m 45s
Apparent Declination
18° 17' 21"
Sunlit
Object is in daylight
Visualization observer readout
Local Sidereal Time
11:46:53
Azimuth
47.846° ENE
Elevation
-16.311°
Doppler factor
1
Orbital elements
Apogee altitude
470.389 km
Perigee altitude
461.861 km
Semi-major axis
6,844.262 km
Eccentricity
0.00062
Inclination
97.2857°
RAAN
249.1543°
Arg. of periapsis
297.9249°
True anomaly
62.19924°
Mean anomaly
62.1361°
Eccentric anomaly
62.16767°
Mean motion
3.83313 °/min
Orbital period
93.92 mins
BSTAR
0.00036549
Loading maneuver chart data...
Loading SW <> Apogee altitude chart data...
|